This is the latest recevied weather packets stored in our database for station/object WA4ORT. If no packets are shown the sender has not sent any weather packets the latest 10 day(s).
| Time | Temp. | Humidity | Pressure | Rain* | Wind** | Luminosity | Snow |
|---|---|---|---|---|---|---|---|
| 1777612957 | 16.11° C | - | - | 0 mm | 1.34 m/s, 325° | - | - |
| 1777612062 | 16.67° C | - | - | 0 mm | 1.34 m/s, 318° | - | - |
| 1777611164 | 16.67° C | - | - | 0 mm | 1.79 m/s, 298° | - | - |
| 1777610269 | 16.67° C | - | - | 0 mm | 1.34 m/s, 325° | - | - |
| 1777609375 | 17.22° C | - | - | 0 mm | 1.34 m/s, 302° | - | - |
| 1777608477 | 17.22° C | - | - | 0 mm | 1.79 m/s, 319° | - | - |
| 1777607582 | 17.22° C | - | - | 0 mm | 1.79 m/s, 307° | - | - |
| 1777606688 | 17.22° C | - | - | 0 mm | 1.79 m/s, 314° | - | - |
| 1777605789 | 17.78° C | - | - | 0 mm | 1.34 m/s, 314° | - | - |
| 1777604895 | 18.33° C | - | - | 0 mm | 1.79 m/s, 314° | - | - |
| 1777604000 | 18.33° C | - | - | 0 mm | 1.79 m/s, 305° | - | - |
| 1777603102 | 18.89° C | - | - | 0 mm | 2.68 m/s, 309° | - | - |
| 1777602208 | 18.89° C | - | - | 0 mm | 1.79 m/s, 325° | - | - |
| 1777601313 | 18.89° C | - | - | 0 mm | 0.89 m/s, 295° | - | - |
| 1777600415 | 18.89° C | - | - | 0 mm | 1.34 m/s, 301° | - | - |
| 1777599520 | 19.44° C | - | - | 0 mm | 0.45 m/s, 300° | - | - |
| 1777598626 | 19.44° C | - | - | 0 mm | 0.89 m/s, 277° | - | - |
| 1777597728 | 19.44° C | - | - | 0 mm | 0.89 m/s, 266° | - | - |
| 1777596833 | 19.44° C | - | - | 0 mm | 0 m/s | - | - |
| 1777595939 | 20° C | - | - | 0 mm | 1.34 m/s, 294° | - | - |
| 1777595041 | 20° C | - | - | 0 mm | 0.89 m/s, 288° | - | - |
| 1777594146 | 20.56° C | - | - | 0 mm | 1.79 m/s, 294° | - | - |
| 1777593251 | 21.11° C | - | - | 0 mm | 2.24 m/s, 298° | - | - |
| 1777592353 | 21.11° C | - | - | 0 mm | 2.68 m/s, 318° | - | - |
| 1777591459 | 21.67° C | - | - | 0 mm | 3.13 m/s, 301° | - | - |
* Rain latest hour (hover to see other rain measurements)
** Current wind speed in m/s (hover to see current wind gust speed)